| time (UTC) | temp F | wind direction | speed knots | gust knots | rain 1hr in | rain 24hr in | rain mn in | humidity % | barometer mb |
| 20260506184824 | 49 | 163 | 3.5 | 6.1 | 0.00 | 0.00 | 0.00 | 62 | 1001.7 |
| 20260506183325 | 49 | 151 | 1.7 | 1.7 | 0.00 | 0.00 | 0.00 | 58 | 1001.7 |
| 20260506181825 | 50 | 150 | 1.7 | 2.6 | 0.00 | 0.00 | 0.00 | 55 | 1001.7 |
| 20260506180325 | 50 | 115 | 0.0 | 0.0 | 0.00 | 0.00 | 0.00 | 52 | 1001.7 |
| 20260506174825 | 51 | 118 | 1.7 | 2.6 | 0.00 | 0.00 | 0.00 | 50 | 1001.7 |
| 20260506173325 | 52 | 92 | 2.6 | 3.5 | 0.00 | 0.00 | 0.00 | 49 | 1001.7 |
| 20260506171825 | 52 | 115 | 0.9 | 0.9 | 0.00 | 0.00 | 0.00 | 47 | 1001.7 |
| 20260506170325 | 52 | 134 | 0.0 | 0.9 | 0.00 | 0.00 | 0.00 | 51 | 1001.7 |
| 20260506164826 | 51 | 105 | 1.7 | 1.7 | 0.00 | 0.00 | 0.00 | 50 | 1001.7 |
| 20260506163326 | 52 | 102 | 0.9 | 0.9 | 0.00 | 0.00 | 0.00 | 49 | 1002.0 |
| 20260506161825 | 53 | 101 | 0.0 | 0.9 | 0.00 | 0.00 | 0.00 | 52 | 1002.0 |
| 20260506160325 | 53 | 131 | 0.0 | 0.0 | 0.00 | 0.00 | 0.00 | 52 | 1002.0 |
| 20260506154825 | 52 | 140 | 0.0 | 0.9 | 0.00 | 0.00 | 0.00 | 51 | 1002.0 |
| 20260506153325 | 52 | 143 | 0.0 | 0.9 | 0.00 | 0.00 | 0.00 | 53 | 1002.0 |
| 20260506151828 | 52 | 111 | 0.9 | 1.7 | 0.00 | 0.00 | 0.00 | 53 | 1002.0 |
| 20260506150325 | 52 | 125 | 1.7 | 2.6 | 0.00 | 0.00 | 0.00 | 52 | 1002.0 |
| 20260506144824 | 51 | 124 | 2.6 | 3.5 | 0.00 | 0.00 | 0.00 | 53 | 1002.4 |
| 20260506143326 | 51 | 95 | 1.7 | 1.7 | 0.00 | 0.00 | 0.00 | 53 | 1002.4 |
| 20260506141825 | 51 | 123 | 0.9 | 1.7 | 0.00 | 0.00 | 0.00 | 54 | 1002.4 |
| 20260506140325 | 52 | 89 | 0.9 | 1.7 | 0.00 | 0.00 | 0.00 | 54 | 1002.4 |
| 20260506134826 | 52 | 106 | 0.0 | 0.0 | 0.00 | 0.00 | 0.00 | 54 | 1002.4 |
| 20260506133325 | 52 | 134 | 0.0 | 0.0 | 0.00 | 0.00 | 0.00 | 51 | 1002.4 |
| 20260506131825 | 53 | 257 | 0.9 | 0.9 | 0.00 | 0.00 | 0.00 | 49 | 1002.7 |
| 20260506130324 | 53 | 136 | 0.9 | 0.9 | 0.00 | 0.00 | 0.00 | 50 | 1002.0 |
| 20260506124825 | 54 | 21 | 0.0 | 0.9 | 0.00 | 0.00 | 0.00 | 47 | 1002.4 |
| 20260506123331 | 53 | 136 | 0.9 | 1.7 | 0.00 | 0.00 | 0.00 | 52 | 1002.4 |
| 20260506121831 | 55 | 25 | 0.9 | 0.9 | 0.00 | 0.00 | 0.00 | 45 | 1002.4 |
| 20260506120325 | 57 | 287 | 0.9 | 1.7 | 0.00 | 0.00 | 0.00 | 45 | 1002.4 |
| 20260506114825 | 55 | 16 | 0.9 | 0.9 | 0.00 | 0.00 | 0.00 | 49 | 1002.4 |
| 20260506113325 | 55 | 348 | 0.0 | 0.9 | 0.00 | 0.00 | 0.00 | 49 | 1002.7 |
| 20260506111825 | 56 | 194 | 0.0 | 0.9 | 0.00 | 0.00 | 0.00 | 47 | 1003.0 |
| 20260506110325 | 56 | 108 | 0.9 | 1.7 | 0.00 | 0.00 | 0.00 | 47 | 1003.0 |
| 20260506104825 | 55 | 101 | 0.9 | 0.9 | 0.00 | 0.00 | 0.00 | 48 | 1002.7 |
| 20260506103356 | 54 | 32 | 0.9 | 1.7 | 0.00 | 0.00 | 0.00 | 48 | 1003.0 |
| 20260506101825 | 54 | 225 | 1.7 | 3.5 | 0.00 | 0.00 | 0.00 | 49 | 1003.0 |
| 20260506100325 | 54 | 118 | 0.9 | 0.9 | 0.00 | 0.00 | 0.00 | 49 | 1003.0 |
| 20260506094825 | 52 | 6 | 0.9 | 0.9 | 0.00 | 0.00 | 0.00 | 55 | 1003.0 |
| 20260506093325 | 52 | 305 | 1.7 | 1.7 | 0.00 | 0.00 | 0.00 | 56 | 1003.4 |
| 20260506091825 | 51 | 99 | 1.7 | 1.7 | 0.00 | 0.00 | 0.00 | 59 | 1003.0 |
| 20260506090325 | 51 | 344 | 0.0 | 0.9 | 0.00 | 0.00 | 0.00 | 58 | 1003.4 |
| 20260506084825 | 50 | 43 | 0.9 | 0.9 | 0.00 | 0.00 | 0.00 | 60 | 1003.4 |
| 20260506083324 | 49 | 21 | 0.0 | 0.0 | 0.00 | 0.00 | 0.00 | 64 | 1003.4 |
| 20260506081825 | 48 | 285 | 1.7 | 2.6 | 0.00 | 0.00 | 0.00 | 65 | 1003.4 |
| 20260506080326 | 47 | 144 | 0.9 | 1.7 | 0.00 | 0.00 | 0.00 | 68 | 1003.4 |
| 20260506073325 | 47 | 299 | 0.9 | 0.9 | 0.00 | 0.00 | 0.00 | 67 | 1003.4 |
| 20260506071825 | 45 | 342 | 0.0 | 0.0 | 0.00 | 0.00 | 0.00 | 70 | 1003.4 |
| 20260506070325 | 44 | 18 | 0.0 | 0.9 | 0.00 | 0.00 | 0.00 | 71 | 1003.4 |
| 20260506061825 | 42 | 318 | 0.9 | 0.9 | 0.00 | 0.00 | 0.00 | 72 | 1003.4 |
| 20260506060325 | 42 | 359 | 0.0 | 0.0 | 0.00 | 0.00 | 0.00 | 72 | 1003.0 |
| 20260506050325 | 40 | 357 | 0.0 | 0.9 | 0.00 | 0.00 | 0.00 | 75 | 1003.4 |
| 20260506044825 | 39 | 320 | 0.0 | 0.0 | 0.00 | 0.00 | 0.00 | 77 | 1003.4 |
| 20260506043326 | 38 | 320 | 0.9 | 1.7 | 0.00 | 0.00 | 0.00 | 79 | 1003.4 |
| 20260506041826 | 38 | 348 | 0.9 | 0.9 | 0.00 | 0.00 | 0.00 | 81 | 1003.0 |
| 20260506040326 | 38 | 43 | 0.0 | 0.0 | 0.00 | 0.00 | 0.00 | 82 | 1003.0 |
| 20260506034826 | 38 | 325 | 0.0 | 0.0 | 0.00 | 0.00 | 0.00 | 82 | 1003.4 |
| 20260506033328 | 38 | 325 | 0.0 | 0.0 | 0.00 | 0.00 | 0.00 | 81 | 1003.0 |
| 20260506031826 | 38 | 278 | 0.0 | 0.9 | 0.00 | 0.00 | 0.00 | 81 | 1003.4 |
| 20260506030325 | 39 | 181 | 0.0 | 0.0 | 0.00 | 0.00 | 0.00 | 80 | 1003.4 |
| 20260506024826 | 39 | 112 | 0.0 | 0.0 | 0.00 | 0.00 | 0.00 | 79 | 1003.4 |
| 20260506023325 | 40 | 122 | 0.0 | 0.9 | 0.00 | 0.00 | 0.00 | 79 | 1003.4 |
| 20260506021825 | 40 | 127 | 0.9 | 1.7 | 0.00 | 0.00 | 0.00 | 79 | 1003.4 |
| 20260506020325 | 39 | 114 | 0.0 | 0.0 | 0.00 | 0.00 | 0.00 | 80 | 1003.4 |
| 20260506014825 | 40 | 114 | 0.0 | 0.0 | 0.00 | 0.00 | 0.00 | 79 | 1003.4 |
| 20260506013327 | 40 | 197 | 0.0 | 0.0 | 0.00 | 0.00 | 0.00 | 78 | 1003.7 |
| 20260506011826 | 41 | 178 | 0.0 | 0.0 | 0.00 | 0.00 | 0.00 | 77 | 1003.4 |
| 20260506010327 | 42 | 10 | 0.0 | 0.0 | 0.00 | 0.00 | 0.00 | 77 | 1003.7 |
| 20260506004830 | 42 | 339 | 0.0 | 0.9 | 0.00 | 0.00 | 0.00 | 76 | 1003.7 |
| 20260506003325 | 42 | 316 | 0.0 | 0.0 | 0.00 | 0.00 | 0.00 | 76 | 1003.7 |
| 20260506001825 | 43 | 295 | 0.0 | 0.0 | 0.00 | 0.00 | 0.00 | 75 | 1003.4 |
| 20260506000325 | 43 | 289 | 1.7 | 1.7 | 0.00 | 0.00 | 0.00 | 77 | 1003.4 |
| 20260505234825 | 43 | 62 | 0.0 | 0.9 | 0.00 | 0.00 | 0.00 | 78 | 1003.4 |
| 20260505233326 | 43 | 94 | 0.0 | 0.0 | 0.00 | 0.00 | 0.00 | 78 | 1003.4 |
| 20260505231825 | 43 | 249 | 0.9 | 0.9 | 0.00 | 0.00 | 0.00 | 78 | 1003.4 |
| 20260505230325 | 44 | 30 | 0.9 | 0.9 | 0.00 | 0.00 | 0.00 | 77 | 1003.7 |
| 20260505224825 | 44 | 138 | 1.7 | 2.6 | 0.00 | 0.00 | 0.00 | 75 | 1003.7 |
| 20260505223325 | 44 | 97 | 3.5 | 5.2 | 0.00 | 0.00 | 0.00 | 76 | 1003.4 |
| 20260505221825 | 44 | 82 | 2.6 | 2.6 | 0.00 | 0.00 | 0.00 | 77 | 1003.4 |
| 20260505220346 | 44 | 149 | 0.9 | 0.9 | 0.00 | 0.00 | 0.00 | 77 | 1003.7 |
| 20260505214826 | 44 | 109 | 2.6 | 3.5 | 0.00 | 0.00 | 0.00 | 76 | 1003.4 |
| 20260505213326 | 44 | 102 | 3.5 | 6.1 | 0.00 | 0.00 | 0.00 | 76 | 1003.4 |
| 20260505211824 | 44 | 133 | 0.9 | 0.9 | 0.00 | 0.00 | 0.00 | 76 | 1003.4 |
| 20260505210325 | 44 | 105 | 0.9 | 0.9 | 0.00 | 0.00 | 0.00 | 75 | 1003.7 |
| 20260505204825 | 45 | 159 | 0.0 | 0.9 | 0.00 | 0.00 | 0.00 | 75 | 1003.4 |
| 20260505203324 | 45 | 34 | 0.0 | 0.0 | 0.00 | 0.00 | 0.00 | 75 | 1003.4 |
| 20260505201825 | 45 | 108 | 1.7 | 3.5 | 0.00 | 0.00 | 0.00 | 74 | 1003.4 |
| 20260505200325 | 45 | 174 | 0.0 | 0.0 | 0.00 | 0.00 | 0.00 | 74 | 1003.0 |
| 20260505194825 | 45 | 120 | 0.9 | 1.7 | 0.00 | 0.00 | 0.00 | 74 | 1003.0 |
| 20260505193325 | 46 | 275 | 1.7 | 2.6 | 0.00 | 0.00 | 0.00 | 74 | 1003.0 |
| 20260505191826 | 46 | 102 | 1.7 | 1.7 | 0.00 | 0.00 | 0.00 | 75 | 1002.7 |
| 20260505190325 | 46 | 151 | 1.7 | 1.7 | 0.00 | 0.00 | 0.00 | 75 | 1002.7 |